Weather in Samburov

Russia / Rostov Oblast     48°24′10″N   40°35′30″E
temp.,
°C
wind,
m/s
gust,
m/s
humid.,
%
clouds,
%
prec.,
mm/h
press.,
hPa
HPBL,
m
23 october, sat
sat2300:00+12sw41078100 0.0 1016242
03:00+10sw368159 0.0 101694
06:00+10ssw33895 0.0 101638
09:00+13sw477178 0.0 1016286
12:00+18sw674799 0.0 1016827
15:00+17w5747100 0.0 10151090
18:00+14nw5966100 0.0 1016356
21:00+12w4876100 0.6 1017405
24 october, sun
sun2400:00+11w4978100 0.3 1018310
03:00+10nnw3764100 0.3 1018279
06:00+7nnw226462 0.0 102027
09:00+9nnw355344 0.0 1021332
12:00+12nw4539100 0.0 10211252
15:00+11nw4539100 0.0 10201336
18:00+9nw3548100 0.0 1021154
21:00+8nw375194 0.0 1021271
25 october, mon
mon2500:00+5nw49595 0.0 1022201
03:00+3nw410765 0.0 1023253
06:00+2nnw511845 0.0 1026357
09:00+4nnw69665 0.0 1028629
12:00+6nnw67455 0.0 10291208
15:00+7n67351 0.0 10291410
18:00+4n35415 0.0 103173
21:00+2n334645 0.0 103233
26 october, tue
tue2600:00+1n22495 0.0 103312
03:000n22525 0.0 103410
06:00−1n11550 0.0 103410
09:00+3n01430 0.0 1035186
12:00+7wsw00320 0.0 1034747
15:00+8wsw11272 0.0 1032901
18:00+5s11355 0.0 103210
21:00+3sse11380 0.0 103210
27 october, wed
wed2700:00+2sse22411 0.0 103210
03:00+1sse22445 0.0 103210
06:000se22480 0.0 103112
09:00+4sse34410 0.0 1031209
12:00+9sse45270 0.0 1029689
15:00+11se45220 0.0 1027863
18:00+6se34330 0.0 102641
21:00+4se33440 0.0 102634